N4VTB-13 Weather Reports


time (UTC)temp
C
wind
direction
speed
KPH
gust
KPH
rain 1hr
cm
rain 24hr
cm
rain mn
cm
humidity
%
barometer
mb
20260503194117 25 248 1.6 3.2 0.00 0.00 0.00 42 1014.1
20260503193117 26 0.0 1.6 0.00 0.00 0.00 45 1014.4
20260503192117 25 0.0 1.6 0.00 0.00 0.00 46 1014.3
20260503191117 24 0.0 1.6 0.00 0.00 0.00 47 1014.4
20260503190117 25 158 1.6 3.2 0.00 0.00 0.00 45 1014.4
20260503185117 24 225 1.6 3.2 0.00 0.00 0.00 47 1014.6
20260503184117 24 158 1.6 6.4 0.00 0.00 0.00 46 1014.7
20260503183117 23 180 1.6 3.2 0.00 0.00 0.00 48 1014.7
20260503182116 24 0 1.6 3.2 0.00 0.00 0.00 46 1014.9
20260503181117 23 0.0 1.6 0.00 0.00 0.00 51 1014.9
20260503180117 23 45 1.6 6.4 0.00 0.00 0.00 51 1015.0
20260503175117 22 0.0 1.6 0.00 0.00 0.00 54 1015.1
20260503174117 22 203 1.6 3.2 0.00 0.00 0.00 52 1015.1
20260503173117 22 90 1.6 3.2 0.00 0.00 0.00 53 1015.2
20260503172136 21 68 1.6 1.6 0.00 0.00 0.00 54 1015.2
20260503171117 21 0.0 1.6 0.00 0.00 0.00 56 1015.4
20260503170117 20 158 1.6 3.2 0.00 0.00 0.00 58 1015.4
20260503160116 15 0.0 0.0 0.00 0.00 0.00 78 1015.4
20260503150136 12 0.0 0.0 0.00 0.00 0.00 91 1015.4
20260503140137 11 0.0 0.0 0.00 0.00 0.00 91 1015.2
20260503131116 11 0.0 0.0 0.00 0.00 0.00 89 1015.1
20260503130116 11 0.0 0.0 0.00 0.00 0.00 89 1015.2
20260503120116 11 0.0 0.0 0.00 0.00 0.00 87 1015.2
20260503110116 11 0.0 0.0 0.00 0.00 0.00 86 1015.6
20260503100136 12 0.0 0.0 0.00 0.00 0.00 82 1015.6
20260503090116 13 0.0 0.0 0.00 0.00 0.00 77 1015.8
20260503081115 13 0.0 0.0 0.00 0.00 0.00 75 1015.8
20260503080107 13 0.0 0.0 0.00 0.00 0.00 75 1015.8
20260503072115 14 0.0 0.0 0.00 0.00 0.00 72 1015.7
20260503071135 14 0.0 0.0 0.00 0.00 0.00 72 1015.7
20260503070116 14 0.0 0.0 0.00 0.00 0.00 71 1015.5
20260503060116 15 0.0 0.0 0.00 0.00 0.00 69 1015.6
20260503055116 15 0.0 0.0 0.00 0.00 0.00 69 1015.6
20260503054116 15 0.0 0.0 0.00 0.00 0.00 69 1015.5
20260503053116 15 0.0 0.0 0.00 0.00 0.00 68 1015.5
20260503052116 15 0.0 1.6 0.00 0.00 0.00 68 1015.5
20260503051116 15 0.0 0.0 0.00 0.00 0.00 67 1015.5
20260503050115 15 0.0 0.0 0.00 0.00 0.00 65 1015.5
20260503045136 15 0.0 0.0 0.00 0.00 0.00 65 1015.5
20260503044116 16 0.0 0.0 0.00 0.00 0.00 67 1015.4
20260503043115 16 0.0 0.0 0.00 0.00 0.00 66 1015.3
20260503042115 16 0.0 0.0 0.00 0.00 0.00 64 1015.1
20260503041115 16 0.0 0.0 0.00 0.00 0.00 64 1015.0
20260503040116 16 0.0 0.0 0.00 0.00 0.00 63 1014.9
20260503035136 17 0.0 0.0 0.00 0.00 0.00 63 1014.9
20260503034136 17 0.0 0.0 0.00 0.00 0.00 63 1014.6
20260503033115 17 0.0 0.0 0.00 0.00 0.00 62 1014.4
20260503032115 18 0.0 0.0 0.00 0.00 0.00 64 1014.3
20260503031116 18 0.0 0.0 0.00 0.00 0.00 62 1014.2
20260503030115 18 0.0 0.0 0.00 0.00 0.00 63 1014.2
20260503025115 19 0.0 0.0 0.00 0.00 0.00 64 1014.1
20260503024115 19 0.0 0.0 0.00 0.00 0.00 63 1014.1
20260503023116 20 0.0 0.0 0.00 0.00 0.00 63 1014.1
20260503022135 20 0.0 1.6 0.00 0.00 0.00 61 1014.0
20260503021116 20 0.0 0.0 0.00 0.00 0.00 59 1014.1
20260503020116 21 158 1.6 4.8 0.00 0.00 0.00 60 1014.0
20260503015116 21 0.0 1.6 0.00 0.00 0.00 58 1014.0
20260503014115 21 0.0 1.6 0.00 0.00 0.00 56 1014.1
20260503013115 21 338 1.6 3.2 0.00 0.00 0.00 57 1014.0
20260503012115 22 203 1.6 1.6 0.00 0.00 0.00 56 1014.2
20260503011136 22 203 1.6 3.2 0.00 0.00 0.00 57 1014.1
20260503010115 22 113 3.2 8.0 0.00 0.00 0.00 56 1014.1
20260503005135 22 0.0 1.6 0.00 0.00 0.00 58 1014.3
20260503004115 22 180 1.6 3.2 0.00 0.00 0.00 57 1014.4
20260503003115 22 0.0 1.6 0.00 0.00 0.00 58 1014.4
20260503002216 22 0.0 1.6 0.00 0.00 0.00 59 1014.4
20260503001116 22 113 1.6 3.2 0.00 0.00 0.00 58 1014.4
20260503000115 22 0.0 1.6 0.00 0.00 0.00 58 1014.4
20260502235115 23 315 1.6 1.6 0.00 0.00 0.00 57 1014.5
20260502234115 23 180 1.6 4.8 0.00 0.00 0.00 57 1014.7
20260502233115 22 0.0 1.6 0.00 0.00 0.00 58 1014.8
20260502232115 22 0.0 1.6 0.00 0.00 0.00 59 1014.9
20260502231115 22 180 1.6 3.2 0.00 0.00 0.00 57 1015.0
20260502230117 22 180 1.6 3.2 0.00 0.00 0.00 58 1015.2
20260502225117 22 0.0 1.6 0.00 0.00 0.00 59 1015.2
20260502224157 22 0 1.6 1.6 0.00 0.00 0.00 60 1015.4
20260502223117 22 203 3.2 6.4 0.00 0.00 0.00 60 1015.6
20260502222117 22 203 3.2 6.4 0.00 0.00 0.00 59 1015.7
20260502221117 22 90 1.6 3.2 0.00 0.00 0.00 60 1015.7
20260502220117 22 23 1.6 3.2 0.00 0.00 0.00 60 1015.8
20260502215157 22 0.0 1.6 0.00 0.00 0.00 61 1016.0
20260502214117 21 113 1.6 3.2 0.00 0.00 0.00 62 1016.1
20260502213117 21 0.0 1.6 0.00 0.00 0.00 63 1016.1
20260502212117 21 0.0 1.6 0.00 0.00 0.00 63 1016.3
20260502211117 21 180 1.6 3.2 0.00 0.00 0.00 62 1016.3
20260502210117 21 158 1.6 3.2 0.00 0.00 0.00 62 1016.3
20260502205137 22 158 3.2 6.4 0.00 0.00 0.00 59 1016.3
20260502204117 22 0.0 1.6 0.00 0.00 0.00 59 1016.5
20260502203117 22 0.0 1.6 0.00 0.00 0.00 56 1016.5
20260502202117 21 225 3.2 4.8 0.00 0.00 0.00 59 1016.6
20260502201117 21 0.0 1.6 0.00 0.00 0.00 60 1016.7
20260502200117 21 113 1.6 4.8 0.00 0.00 0.00 62 1016.8
20260502195117 20 180 3.2 6.4 0.00 0.00 0.00 61 1016.9